This demonstration page uses our WeatherBlox Daily Observations layout. Learn more.

Left ArrowRight Arrow

39.08367, -84.50855

Hourly Observations for May 14, 2020

Temp ( °F °C ) Dew Point ( °F °C ) Humidity (%) Winds ( mph kmh ) Pressure ( in mb ) Visibility ( mi km ) Precip ( " mm )
12:02 am 00:02 Cloudy 54 12.2 50 10 87 87 SSE 3 6 30.19 1022 10 16.0934 0 0
12:30 am 00:30 Cloudy 54 12.2 51 10.6 90 90 S 3 6 30.18 1022 10 16.0934 0 0
12:38 am 00:38 Cloudy 54 12.2 51 10.6 90 90 S 3 6 30.19 1022 10 16.0934 0 0
12:53 am 00:53 Cloudy 54 12.2 51 10.6 90 90 S 5 7 30.18 1022 10 16.0934 0 0
1:00 am 01:00 Cloudy 54 12.2 51 10.6 90 90 S 3 6 30.18 1022 10 16.0934 0 0
1:53 am 01:53 Cloudy 55 12.8 51 10.6 87 87 SSE 3 6 30.17 1022 10 16.0934 0 0
2:53 am 02:53 Cloudy 55 12.8 51 10.6 87 87 Calm 30.16 1021 10 16.0934 0 0
3:28 am 03:28 Cloudy 55 12.8 52 11.1 90 90 Calm 30.15 1021 10 16.0934 0 0
3:53 am 03:53 Mostly Cloudy 54 12.2 52 11.1 93 93 Calm 30.14 1021 10 16.0934 0 0
4:53 am 04:53 Cloudy 53 11.7 52 11.1 96 96 Calm 30.14 1021 10 16.0934 0 0
5:53 am 05:53 Mostly Cloudy 53 11.7 52 11.1 96 96 SW 3 6 30.13 1020 10 16.0934 0 0
6:53 am 06:53 Mostly Cloudy 53 11.7 52 11.1 96 96 Calm 30.14 1021 10 16.0934 0.001 0.001
7:53 am 07:53 Mostly Cloudy 56 13.3 53 11.7 90 90 Calm 30.15 1021 10 16.0934 0 0
8:53 am 08:53 Mostly Cloudy 60 15.6 55 12.8 84 84 SSW 6 9 30.14 1021 10 16.0934 0 0
9:53 am 09:53 Partly Cloudy 64 17.8 57 13.9 78 78 S 5 7 30.13 1020 10 16.0934 0 0
10:53 am 10:53 Cloudy with Light Rain 66 18.9 60 15.6 81 81 S 9 15 30.11 1020 7 11.26538 0.01 0.254
11:53 am 11:53 Cloudy 67 19.4 59 15 76 76 NW 3 6 30.11 1020 10 16.0934 0.001 0.001
12:53 pm 12:53 Sunny 72 22.2 61 16.1 68 68 SSW 12 19 30.09 1019 10 16.0934 0.001 0.001
1:53 pm 13:53 Sunny 77 25 63 17.2 62 62 S 16 26 30.06 1018 10 16.0934 0 0
2:53 pm 14:53 Mostly Sunny 79 26.1 61 16.1 54 54 SW 18 30 30.03 1017 10 16.0934 0 0
3:53 pm 15:53 Mostly Sunny 81 27.2 61 16.1 51 51 SW 17 28 30.02 1017 10 16.0934 0 0
4:23 pm 16:23 Mostly Cloudy with Nearby Thunderstorms 79 26.1 60 15.6 52 52 SW 17 28 30.01 1016 10 16.0934 0 0
4:38 pm 16:38 Mostly Cloudy 79 26.1 58 14.4 49 49 SW 16 26 30.01 1016 10 16.0934 0 0
4:53 pm 16:53 Partly Cloudy 81 27.2 59 15 47 47 SW 16 26 30.01 1016 10 16.0934 0 0
5:53 pm 17:53 Mostly Sunny 79 26.1 55 12.8 44 44 WSW 12 19 30 1016 10 16.0934 0 0
6:53 pm 18:53 Mostly Sunny 79 26.1 55 12.8 44 44 SW 10 17 29.98 1015 10 16.0934 0 0
7:53 pm 19:53 Sunny 76 24.4 56 13.3 50 50 SSW 13 20 29.96 1015 10 16.0934 0 0
8:53 pm 20:53 Clear 74 23.3 57 13.9 56 56 SSW 9 15 29.96 1015 10 16.0934 0 0
9:53 pm 21:53 Clear 70 21.1 57 13.9 64 64 SSW 7 11 29.97 1015 10 16.0934 0 0
10:53 pm 22:53 Clear 66 18.9 57 13.9 73 73 SW 6 9 29.97 1015 10 16.0934 0 0
11:53 pm 23:53 Clear 67 19.4 56 13.3 68 68 SW 5 7 29.97 1015 10 16.0934 0 0

Powered by AerisWeather